| time (UTC) | temp F | wind direction | speed MPH | gust MPH | rain 1hr in | rain 24hr in | rain mn in | humidity % | barometer mb |
| 20260504081508 | 52 | 106 | 1.0 | 4.0 | 0.00 | 0.00 | 0.00 | 61 | 1002.8 |
| 20260504044532 | 56 | 123 | 0.0 | 1.0 | 0.00 | 0.00 | 0.00 | 55 | 1006.0 |
| 20260504043033 | 56 | 141 | 0.0 | 3.0 | 0.00 | 0.00 | 0.00 | 53 | 1006.0 |
| 20260504041529 | 56 | 153 | 0.0 | 3.0 | 0.00 | 0.00 | 0.00 | 54 | 1006.2 |
| 20260504040039 | 57 | 146 | 0.0 | 2.0 | 0.00 | 0.00 | 0.00 | 52 | 1006.6 |
| 20260504034525 | 58 | 146 | 0.0 | 2.0 | 0.00 | 0.00 | 0.00 | 51 | 1006.7 |
| 20260504033024 | 60 | 146 | 1.0 | 2.0 | 0.00 | 0.00 | 0.00 | 46 | 1006.9 |
| 20260504031524 | 59 | 146 | 1.0 | 3.0 | 0.00 | 0.00 | 0.00 | 48 | 1006.9 |
| 20260504030024 | 60 | 92 | 0.0 | 4.0 | 0.00 | 0.00 | 0.00 | 45 | 1007.0 |
| 20260504024523 | 61 | 97 | 5.0 | 7.0 | 0.00 | 0.00 | 0.00 | 45 | 1006.7 |
| 20260504023020 | 61 | 82 | 3.0 | 4.0 | 0.00 | 0.00 | 0.00 | 46 | 1006.9 |
| 20260504021520 | 62 | 86 | 2.0 | 4.0 | 0.00 | 0.00 | 0.00 | 46 | 1007.0 |
| 20260504020019 | 62 | 76 | 3.0 | 4.0 | 0.00 | 0.00 | 0.00 | 46 | 1007.2 |
| 20260504014524 | 63 | 96 | 2.0 | 4.0 | 0.00 | 0.00 | 0.00 | 45 | 1007.1 |
| 20260504013019 | 63 | 76 | 2.0 | 3.0 | 0.00 | 0.00 | 0.00 | 44 | 1007.1 |
| 20260504011520 | 65 | 79 | 3.0 | 4.0 | 0.00 | 0.00 | 0.00 | 44 | 1007.1 |
| 20260504010016 | 67 | 70 | 3.0 | 5.0 | 0.00 | 0.00 | 0.00 | 39 | 1007.2 |
| 20260504004514 | 68 | 58 | 3.0 | 5.0 | 0.00 | 0.00 | 0.00 | 39 | 1007.4 |
| 20260504003013 | 69 | 61 | 2.0 | 5.0 | 0.00 | 0.00 | 0.00 | 37 | 1007.5 |
| 20260504001511 | 71 | 62 | 3.0 | 6.0 | 0.00 | 0.00 | 0.00 | 38 | 1007.7 |
| 20260504000010 | 72 | 40 | 1.0 | 6.0 | 0.00 | 0.00 | 0.00 | 31 | 1007.9 |
| 20260503234509 | 72 | 65 | 2.0 | 11.0 | 0.00 | 0.00 | 0.00 | 33 | 1008.1 |
| 20260503233008 | 73 | 42 | 5.0 | 11.0 | 0.00 | 0.00 | 0.00 | 29 | 1008.2 |
| 20260503231508 | 74 | 163 | 3.0 | 9.0 | 0.00 | 0.00 | 0.00 | 29 | 1008.1 |
| 20260503230011 | 73 | 140 | 2.0 | 5.0 | 0.00 | 0.00 | 0.00 | 27 | 1008.3 |
| 20260503224508 | 74 | 268 | 1.0 | 5.0 | 0.00 | 0.00 | 0.00 | 29 | 1008.1 |
| 20260503223005 | 74 | 51 | 1.0 | 9.0 | 0.00 | 0.00 | 0.00 | 31 | 1008.5 |
| 20260503221503 | 74 | 13 | 3.0 | 8.0 | 0.00 | 0.00 | 0.00 | 27 | 1008.4 |
| 20260503220003 | 74 | 35 | 1.0 | 4.0 | 0.00 | 0.00 | 0.00 | 31 | 1008.6 |
| 20260503214506 | 74 | 321 | 3.0 | 11.0 | 0.00 | 0.00 | 0.00 | 27 | 1008.7 |
| 20260503213059 | 75 | 329 | 1.0 | 10.0 | 0.00 | 0.00 | 0.00 | 27 | 1008.8 |
| 20260503211558 | 75 | 331 | 6.0 | 11.0 | 0.00 | 0.00 | 0.00 | 29 | 1009.0 |
| 20260503210054 | 75 | 87 | 8.0 | 13.0 | 0.00 | 0.00 | 0.00 | 27 | 1009.2 |
| 20260503204551 | 73 | 243 | 3.0 | 5.0 | 0.00 | 0.00 | 0.00 | 29 | 1009.5 |
| 20260503203049 | 74 | 172 | 3.0 | 16.0 | 0.00 | 0.00 | 0.00 | 30 | 1009.8 |
| 20260503201548 | 74 | 12 | 1.0 | 10.0 | 0.00 | 0.00 | 0.00 | 32 | 1009.9 |
| 20260503200050 | 72 | 315 | 5.0 | 12.0 | 0.00 | 0.00 | 0.00 | 29 | 1010.3 |
| 20260503194544 | 73 | 34 | 5.0 | 13.0 | 0.00 | 0.00 | 0.00 | 28 | 1010.3 |
| 20260503193048 | 74 | 355 | 9.0 | 16.0 | 0.00 | 0.00 | 0.00 | 28 | 1010.5 |
| 20260503191542 | 74 | 332 | 11.0 | 15.0 | 0.00 | 0.00 | 0.00 | 27 | 1010.5 |
| 20260503190046 | 74 | 31 | 4.0 | 16.0 | 0.00 | 0.00 | 0.00 | 29 | 1010.6 |
| 20260503184541 | 74 | 9 | 7.0 | 13.0 | 0.00 | 0.00 | 0.00 | 28 | 1010.7 |
| 20260503183052 | 74 | 63 | 7.0 | 15.0 | 0.00 | 0.00 | 0.00 | 34 | 1010.8 |
| 20260503181540 | 72 | 18 | 5.0 | 10.0 | 0.00 | 0.00 | 0.00 | 32 | 1011.0 |
| 20260503180037 | 73 | 323 | 6.0 | 17.0 | 0.00 | 0.00 | 0.00 | 32 | 1011.1 |
| 20260503174533 | 73 | 74 | 4.0 | 12.0 | 0.00 | 0.00 | 0.00 | 32 | 1011.3 |
| 20260503173032 | 71 | 32 | 6.0 | 11.0 | 0.00 | 0.00 | 0.00 | 37 | 1011.5 |
| 20260503171530 | 71 | 45 | 6.0 | 11.0 | 0.00 | 0.00 | 0.00 | 35 | 1011.7 |